Alexandria, LA

3:35 PM CDT on April 19, 2018 (GMT -0500)
Alexandria International

Weather History for KAEX - August, 2012

Change the Weather History Date:

Thursday, August 30, 2012

  Actual Average Record
Temperature  
Mean Temperature 76 °F 82 °F  
Max Temperature 77 °F 93 °F 105 °F (1954)
Min Temperature 74 °F 70 °F 57 °F (1986)
Cooling Degree Days 11 16  
Month to date cooling degree days 530 529  
Year to date cooling degree days 2273 1975  
Since 1 June cooling degree days 1588 1521  
Growing Degree Days 25 (Base 50)    
Moisture  
Dew Point 73 °F    
Average Humidity 91    
Maximum Humidity 100    
Minimum Humidity 82    
Precipitation  
Precipitation 0.67 in 0.12 in 2.56 in (2014)
Month to date precipitation 4.29 3.39  
Year to date precipitation 42.39 36.12  
Sea Level Pressure  
Sea Level Pressure 29.50 in    
Wind  
Wind Speed 12 mph (SW)    
Max Wind Speed 25 mph    
Max Gust Speed 40 mph    
Visibility 4 miles    
Events Rain    
T = Trace of Precipitation, MM = Missing Value Source: NWS Daily Summary

Daily Weather History Graph

Daily Weather History Graph

Search for Another Location

Airport or City:

Astronomy

Aug. 30, 2012 Rise Set
Actual Time 6:45 AM CDT 7:35 PM CDT
Civil Twilight 6:20 AM CDT 8:00 PM CDT
Nautical Twilight 5:51 AM CDT 8:29 PM CDT
Astronomical Twilight 5:21 AM CDT 8:59 PM CDT
Moon 6:52 PM CDT (8/30) 5:47 AM CDT (8/30)
Length of Visible Light 13h 39m
Length of Day
12h 50m
Waxing Gibbous, 99% of the Moon is Illuminated
Aug 30
Waxing Gibbous
Aug 31
Full
Sep 8
Last Quarter
Sep 15
New
Sep 22
First Quarter

Hourly Weather History & Observations

Time (CDT) Temp. Dew Point Humidity Pressure Visibility Wind Dir Wind Speed Gust Speed Precip Events Conditions
12:53 AM 75.9 °F 72.0 °F 87% 29.41 in 5.0 mi North 17.3 mph 33.4 mph 0.01 in   Overcast
1:53 AM 77.0 °F 71.1 °F 82% 29.35 in 10.0 mi North 25.3 mph 40.3 mph 0.01 in   Overcast
2:25 AM 75.2 °F 71.6 °F 89% 29.33 in 2.0 mi North 20.7 mph 32.2 mph 0.08 in Rain Heavy Rain
2:32 AM 75.2 °F 71.6 °F 89% 29.33 in 1.5 mi North 25.3 mph 35.7 mph 0.13 in Rain Heavy Rain
2:42 AM 73.4 °F 71.6 °F 94% 29.33 in 2.5 mi North 20.7 mph 31.1 mph 0.18 in Rain Rain
2:53 AM 73.9 °F 72.0 °F 93% 29.33 in 2.5 mi North 19.6 mph 32.2 mph 0.22 in Rain Light Rain
3:07 AM 73.4 °F 71.6 °F 94% 29.31 in 3.0 mi North 19.6 mph 31.1 mph 0.04 in Rain Rain
3:30 AM 73.4 °F 71.6 °F 94% 29.30 in 3.0 mi NNW 18.4 mph 34.5 mph 0.09 in Rain Rain
3:53 AM 73.9 °F 72.0 °F 93% 29.30 in 3.0 mi North 19.6 mph 28.8 mph 0.12 in Rain Light Rain
4:35 AM 73.4 °F 71.6 °F 94% 29.28 in 4.0 mi NNW 16.1 mph 27.6 mph 0.04 in   Overcast
4:53 AM 73.9 °F 72.0 °F 93% 29.29 in 4.0 mi NNW 15.0 mph 21.9 mph 0.04 in Rain Light Rain
5:53 AM 73.9 °F 72.0 °F 93% 29.29 in 4.0 mi NW 15.0 mph 20.7 mph 0.03 in Rain Light Rain
6:04 AM 73.4 °F 71.6 °F 94% 29.28 in 4.0 mi NW 12.7 mph 20.7 mph 0.01 in Rain Light Rain
6:53 AM 73.9 °F 73.0 °F 97% 29.31 in 3.0 mi WNW 11.5 mph 19.6 mph 0.03 in Rain Light Rain
7:06 AM 73.4 °F 73.4 °F 100% 29.30 in 2.5 mi WNW 13.8 mph 20.7 mph 0.00 in Rain Light Rain
7:53 AM 73.9 °F 72.0 °F 93% 29.33 in 1.8 mi WNW 13.8 mph - 0.01 in Rain Light Rain
8:53 AM 73.9 °F 72.0 °F 93% 29.36 in 2.0 mi WNW 10.4 mph 19.6 mph 0.02 in Rain Light Rain
9:36 AM 73.4 °F 73.4 °F 100% 29.38 in 1.8 mi West 10.4 mph - 0.01 in Rain Light Rain
9:48 AM 73.4 °F 73.4 °F 100% 29.39 in 2.0 mi West 10.4 mph - 0.01 in Rain Light Rain
9:53 AM 73.9 °F 73.0 °F 97% 29.40 in 2.0 mi WNW 11.5 mph - 0.01 in Rain Light Rain
10:53 AM 75.0 °F 73.0 °F 94% 29.44 in 2.5 mi WSW 13.8 mph 18.4 mph 0.00 in Rain Light Rain
11:28 AM 75.2 °F 73.4 °F 94% 29.45 in 3.0 mi WSW 11.5 mph 19.6 mph 0.00 in   Overcast
11:43 AM 75.2 °F 73.4 °F 94% 29.46 in 2.5 mi WSW 9.2 mph - 0.00 in   Overcast
11:53 AM 75.0 °F 73.0 °F 94% 29.47 in 2.5 mi SW 9.2 mph - 0.00 in Rain Light Rain
12:19 PM 75.2 °F 73.4 °F 94% 29.48 in 1.8 mi SW 10.4 mph - 0.01 in   Overcast
12:53 PM 75.0 °F 73.9 °F 96% 29.50 in 2.0 mi SW 13.8 mph 19.6 mph 0.01 in   Overcast
1:09 PM 75.2 °F 73.4 °F 94% 29.49 in 1.8 mi SSW 12.7 mph - 0.01 in Rain Light Rain
1:24 PM 75.2 °F 73.4 °F 94% 29.50 in 2.0 mi SSW 10.4 mph - 0.01 in Rain Light Rain
1:53 PM 75.0 °F 73.9 °F 96% 29.52 in 2.0 mi SSW 11.5 mph - 0.01 in Rain Light Rain
2:13 PM 75.2 °F 73.4 °F 94% 29.53 in 3.0 mi SSW 12.7 mph 23.0 mph 0.01 in Rain Light Rain
2:34 PM 75.2 °F 73.4 °F 94% 29.52 in 2.5 mi SSW 10.4 mph - 0.02 in Rain Light Rain
2:44 PM 75.2 °F 73.4 °F 94% 29.53 in 3.0 mi SW 11.5 mph 18.4 mph 0.02 in Rain Light Rain
2:53 PM 75.9 °F 73.9 °F 94% 29.54 in 4.0 mi SSW 11.5 mph 18.4 mph 0.03 in Rain Light Rain
3:11 PM 75.2 °F 73.4 °F 94% 29.54 in 2.5 mi SSW 12.7 mph - 0.00 in Rain Light Rain
3:18 PM 75.2 °F 73.4 °F 94% 29.54 in 3.0 mi SSW 12.7 mph - 0.00 in Rain Light Rain
3:25 PM 75.2 °F 73.4 °F 94% 29.54 in 2.5 mi SSW 11.5 mph - 0.00 in Rain Light Rain
3:44 PM 75.2 °F 73.4 °F 94% 29.55 in 4.0 mi SSW 11.5 mph 19.6 mph 0.01 in Rain Light Rain
3:53 PM 75.9 °F 73.9 °F 94% 29.57 in 3.0 mi SSW 13.8 mph 19.6 mph 0.01 in Rain Light Rain
4:04 PM 75.2 °F 73.4 °F 94% 29.56 in 4.0 mi SSW 13.8 mph 19.6 mph 0.00 in Rain Light Rain
4:53 PM 75.9 °F 73.9 °F 94% 29.60 in 4.0 mi South 13.8 mph 20.7 mph 0.01 in   Overcast
5:53 PM 75.9 °F 73.9 °F 94% 29.62 in 2.5 mi South 11.5 mph 18.4 mph 0.00 in Rain Light Rain
5:58 PM 75.2 °F 73.4 °F 94% 29.62 in 3.0 mi South 10.4 mph - 0.01 in Rain Light Rain
6:05 PM 75.2 °F 73.4 °F 94% 29.62 in 5.0 mi South 11.5 mph 19.6 mph 0.01 in Rain Light Rain
6:12 PM 75.2 °F 73.4 °F 94% 29.62 in 10.0 mi South 9.2 mph 19.6 mph 0.01 in   Overcast
6:53 PM 75.2 °F 73.4 °F 94% 29.64 in 9.0 mi South 12.7 mph 18.4 mph N/A   Overcast
7:00 PM 75.2 °F 73.4 °F 94% 29.64 in 9.0 mi South 10.4 mph 21.9 mph N/A   Overcast
7:16 PM 75.2 °F 73.4 °F 94% 29.65 in 8.0 mi South 10.4 mph - N/A   Overcast
7:53 PM 75.9 °F 73.0 °F 91% 29.68 in 10.0 mi SSW 10.4 mph - 0.00 in   Overcast
8:00 PM 75.2 °F 73.4 °F 94% 29.68 in 10.0 mi South 8.1 mph 18.4 mph N/A   Overcast
8:27 PM 75.2 °F 73.4 °F 94% 29.69 in 10.0 mi South 9.2 mph - N/A   Overcast
8:53 PM 75.9 °F 73.0 °F 91% 29.72 in 10.0 mi South 8.1 mph - N/A   Overcast
9:53 PM 75.9 °F 73.0 °F 91% 29.76 in 10.0 mi South 8.1 mph - N/A   Overcast
10:53 PM 75.9 °F 72.0 °F 87% 29.79 in 10.0 mi South 5.8 mph - N/A   Mostly Cloudy
11:31 PM 75.2 °F 71.6 °F 89% 29.79 in 10.0 mi SSE 3.5 mph - N/A   Overcast
11:53 PM 75.9 °F 72.0 °F 87% 29.81 in 10.0 mi South 5.8 mph - N/A   Overcast